Location: ????????
(56.1167°N, 38.6333°E)
Time: 20:53:19
(UTC+00:00)

RESURS DK-1 - Pass Details

Date: 18 November 2025
Orbit: 525 x 534 km, 69.9° (Epoch: 14 December)

Event Time Altitude Azimuth Distance (km) Brightness Sun altitude
Rises 15:17:21 0° 317° (NW) 2,698 6.3 -16.9°
Reaches altitude 10° 15:19:45 10° 306° (NW) 1,802 5.6 -17.2°
Maximum altitude 15:23:11 28° 247° (WSW) 1,039 4.5 -17.7°
Drops below altitude 10° 15:26:35 10° 188° (S) 1,789 5.1 -18.2°
Sets 15:28:58 0° 177° (S) 2,675 5.9 -18.5°
